Troutdale, OR

4:16 PM PDT on September 26, 2016 (GMT -0700)
Portland-Troutdale

Weather History for KTTD - October, 2011

Change the Weather History Date:

Friday, October 28, 2011

  Actual Average Record
Temperature  
Mean Temperature 52 °F 50 °F  
Max Temperature 57 °F 59 °F 72 °F (2003)
Min Temperature 47 °F 42 °F 26 °F (1970)
Degree Days  
Heating Degree Days 13 15  
Month to date heating degree days 263 303  
Cooling Degree Days 0 0  
Month to date cooling degree days 0 0  
Growing Degree Days 2 (Base 50)    
Moisture  
Dew Point 46 °F    
Average Humidity 76    
Maximum Humidity 96    
Minimum Humidity 55    
Precipitation  
Precipitation 0.19 in 0.18 in 0.98 in (1999)
Month to date precipitation 1.69 3.37  
Year to date precipitation 28.01 31.94  
Snow  
Snow 0.00 in - - ()
Month to date snowfall 0.0  
Snow Depth 0.00 in    
Sea Level Pressure  
Sea Level Pressure 30.07 in    
Wind  
Wind Speed 8 mph (SE)    
Max Wind Speed 26 mph    
Max Gust Speed 32 mph    
Visibility 8 miles    
Events Rain    
T = Trace of Precipitation, MM = Missing Value Source: NWS Daily Summary

Daily Weather History Graph

Daily Weather History Graph

Search for Another Location

Airport or City:

Trip Planner

Search our weather history database for the weather conditions in past years. The results will help you decide how hot, cold, wet, or windy it might be!

Date:

Astronomy

Oct. 28, 2011 Rise Set
Actual Time 7:43 AM PDT 6:02 PM PDT
Civil Twilight 7:12 AM PDT 6:33 PM PDT
Nautical Twilight 6:37 AM PDT 7:08 PM PDT
Astronomical Twilight 6:03 AM PDT 7:42 PM PDT
Moon 10:14 AM PDT (10/28) 7:21 PM PDT (10/28)
Length of Visible Light 11h 20m
Length of Day
10h 19m
Waxing Crescent, 6% of the Moon is Illuminated
Oct 28
Waxing Crescent
Nov 2
First Quarter
Nov 10
Full
Nov 18
Last Quarter
Nov 24
New

Hourly Weather History & Observations

Time (PDT) Temp. Dew Point Humidity Pressure Visibility Wind Dir Wind Speed Gust Speed Precip Events Conditions
1:53 AM 51.1 °F 37.9 °F 61% 30.09 in 10.0 mi East 15.0 mph 24.2 mph N/A   Clear
3:53 AM 51.1 °F 37.0 °F 59% 30.08 in 10.0 mi East 17.3 mph 26.5 mph N/A   Clear
4:53 AM 51.1 °F 37.0 °F 59% 30.06 in 10.0 mi East 20.7 mph 32.2 mph N/A   Clear
5:53 AM 50.0 °F 37.0 °F 61% 30.06 in 10.0 mi East 18.4 mph 24.2 mph N/A   Clear
6:53 AM 50.0 °F 37.0 °F 61% 30.09 in 10.0 mi East 15.0 mph 20.7 mph N/A   Clear
7:53 AM 48.9 °F 36.0 °F 61% 30.09 in 10.0 mi SE 9.2 mph - N/A   Clear
8:53 AM 48.0 °F 37.9 °F 68% 30.09 in 10.0 mi SE 5.8 mph - N/A   Mostly Cloudy
9:53 AM 51.1 °F 37.0 °F 59% 30.09 in 10.0 mi East 13.8 mph 19.6 mph N/A   Clear
10:53 AM 52.0 °F 37.9 °F 59% 30.09 in 10.0 mi East 9.2 mph 16.1 mph N/A   Partly Cloudy
12:53 PM 54.0 °F 39.9 °F 59% 30.08 in 10.0 mi East 11.5 mph - N/A   Mostly Cloudy
1:53 PM 57.0 °F 41.0 °F 55% 30.06 in 10.0 mi NNE 3.5 mph - N/A   Overcast
2:53 PM 55.9 °F 42.1 °F 60% 30.05 in 10.0 mi East 4.6 mph - N/A   Overcast
3:53 PM 53.1 °F 46.9 °F 80% 30.05 in 6.0 mi Calm Calm - 0.04 in Rain Light Rain
4:53 PM 52.0 °F 50.0 °F 93% 30.05 in 5.0 mi Variable 3.5 mph - 0.05 in Rain Light Rain
5:53 PM 52.0 °F 50.0 °F 93% 30.03 in 10.0 mi ENE 4.6 mph - 0.02 in Rain Light Rain
6:28 PM 51.8 °F 50.0 °F 94% 30.02 in 6.0 mi East 3.5 mph - 0.02 in Rain Light Rain
6:53 PM 53.1 °F 51.1 °F 93% 30.02 in 10.0 mi Calm Calm - 0.02 in Rain Light Rain
7:53 PM 55.9 °F 53.1 °F 90% 30.04 in 7.0 mi SW 10.4 mph 18.4 mph 0.00 in Rain Light Rain
8:37 PM 55.4 °F 53.6 °F 94% 30.05 in 2.5 mi SW 11.5 mph - 0.03 in Rain Light Rain
8:39 PM 55.4 °F 53.6 °F 94% 30.05 in 3.0 mi SW 12.7 mph - 0.03 in Rain Light Rain
8:51 PM 55.4 °F 53.6 °F 94% 30.06 in 3.0 mi SW 12.7 mph 19.6 mph 0.05 in Rain Light Rain
8:53 PM 55.9 °F 54.0 °F 93% 30.06 in 3.0 mi SSW 13.8 mph 20.7 mph 0.05 in Rain Rain
9:10 PM 55.4 °F 53.6 °F 94% 30.06 in 3.0 mi SSW 18.4 mph 25.3 mph 0.01 in Rain Light Rain
9:49 PM 55.4 °F 53.6 °F 94% 30.10 in 3.0 mi Variable 3.5 mph - 0.01 in   Overcast
9:50 PM 55.4 °F 53.6 °F 94% 30.10 in 3.0 mi WNW 4.6 mph - 0.01 in   Overcast
9:53 PM 55.9 °F 53.1 °F 90% 30.10 in 3.0 mi Variable 4.6 mph - 0.01 in   Overcast
10:02 PM 55.4 °F 53.6 °F 94% 30.10 in 10.0 mi Variable 3.5 mph - N/A   Overcast
10:53 PM 54.0 °F 52.0 °F 93% 30.13 in 10.0 mi West 3.5 mph - N/A   Overcast
11:41 PM 53.6 °F 48.2 °F 82% 30.14 in 10.0 mi Calm Calm - N/A   Overcast
11:53 PM 54.0 °F 48.9 °F 83% 30.15 in 10.0 mi Calm Calm - N/A   Overcast